Miscellaneous Local Product
Issued by NWS North Platte, NE

Home | Current Version | Previous Version | Graphics & Text | Print | Product List | Glossary On
Versions: 1 2 3 4 5 6 7 8 9 10 11 12 13 14 15 16 17 18 19 20 21 22 23 24 25 26 27 28 29 30 31 32 33 34 35 36 37 38 39 40 41 42 43 44 45 46 47 48 49 50
727
AXUS43 KLBF 160310
MISLBF


WESTERN AND NORTH CENTRAL NEBRASKA HOURLY WEATHER ROUNDUP
NATIONAL WEATHER SERVICE NORTH PLATTE NE
900 PM CST MON JAN 15 2018

NOTE: "FAIR" INDICATES FEW OR NO CLOUDS BELOW 12,000 FEET WITH NO
SIGNIFICANT WEATHER AND/OR OBSTRUCTIONS TO VISIBILITY.

NOTE: STATIONS NOT REPORTING VARIABLES SUCH AS SKY/WEATHER OR
PRESSURE ARE PROVIDED BY RAWS AND APRS NETWORKS AND ARE NOT UNDER
NATIONAL WEATHER SERVICE QUALITY CONTROL.

...OBSERVATIONS IN AND NEAR THE EASTERN PANHANDLE OF NEBRASKA...

CITY           SKY/WX    TMP DP  RH WIND       PRES   REMARKS
PINE RIDGE     CLEAR     -8 -12  83 NW3       30.69R
GORDON         FAIR      -6 -12  75 NW6       30.63S WCI -19
CHADRON        CLEAR     -8 -12  83 W3        30.70S
ALLIANCE       CLEAR     -4  -8  83 N9        30.60S WCI -20
SIDNEY         CLEAR     -4  -7  87 N7        30.58R WCI -18
CRESCENT LAKE    N/A     -3  -9  75 N9          N/A  WCI -19
$$

...OBSERVATIONS IN NORTHERN NEBRASKA AND FAR SOUTHERN SOUTH DAKOTA...

CITY           SKY/WX    TMP DP  RH WIND       PRES   REMARKS
WINNER         FAIR      -1 -10  65 N17       30.73F WCI -22
VALENTINE      CLEAR     -2 -11  65 NW16      30.69S WCI -23
AINSWORTH      CLOUDY    -1  -8  71 N24G30    30.67R WCI -26
O`NEILL        MOCLDY    -2  -7  81 N14       30.67R WCI -21
THEDFORD       PTCLDY     0  -8  71 NW17      30.65S WCI -21
BROKEN BOW     CLEAR      1  -9  62 NW17G24   30.65R WCI -19
ORD            PTCLDY     1  -8  66 NW17G26   30.67R WCI -19
ALBION         CLEAR      0  -7  73 N15G21    30.68R WCI -19
VALENTINE NWR    N/A     -3 -11  68 NW15G23     N/A  WCI -23
HALSEY           N/A     -2 -11  66 NW9G20      N/A  WCI -18
BUTTE            N/A     -4 -10  75 N21G30      N/A  WCI -28
CHAMBERS         N/A     -2 -13  60 W3G15       N/A
EWING            N/A     -3  -8  79 N16G24      N/A  WCI -24
$$

...OBSERVATIONS IN SOUTHWEST NEBRASKA AND FAR NORTHEAST COLORADO...

CITY           SKY/WX    TMP DP  RH WIND       PRES   REMARKS
WRAY           FAIR       5  -4  66 N6        30.63S WCI  -6
HOLYOKE        FAIR       1  -6  71 N7        30.62S WCI -11
IMPERIAL       CLEAR      3  -5  69 NW9       30.64R WCI -12
OGALLALA       CLEAR      5  -3  69 NW10      30.64F WCI -10
NORTH PLATTE   CLEAR      2  -8  63 NW13      30.67R WCI -15
MCCOOK         CLEAR      5  -4  66 NW16      30.67S WCI -14
LEXINGTON      CLEAR      4  -6  64 N15G22    30.67S WCI -14
STAPLETON        N/A     -1  -7  74 CALM        N/A
GOTHENBURG       N/A      3  -5  70 NW9         N/A  WCI -12
CALLAWAY         N/A      0  -6  74 N14         N/A  WCI -18
$$

...OBSERVATIONS IN CENTRAL LINCOLN COUNTY AREA...

CITY           SKY/WX    TMP DP  RH WIND       PRES   REMARKS
N.P. AIRPORT   CLEAR      2  -8  63 NW13      30.67R WCI -15
N.P. DOWNTOWN    N/A      1  -7  70 NW3         N/A
N.P. SOUTHEAST   N/A      1  -7  68 NW5G12      N/A  WCI  -9
N.P. HILLCREST   N/A      1  -6  71 NW13G20     N/A  WCI -17
$$

...SOME OBSERVATIONS FROM AROUND THE REGION...

CITY           SKY/WX    TMP DP  RH WIND       PRES   REMARKS
DENVER         PTCLDY     4  -6  63 E9        30.50R WCI -10
BERTHOUD PASS  FAIR       0 -13  55 N21G29    30.19R WCI -23
GRAND JUNCTION CLEAR     37  18  46 CALM      30.33R
LARAMIE        CLEAR      3  -7  63 CALM      30.37S
CHEYENNE       CLEAR      4  -4  69 NW3       30.43S
CASPER         PTCLDY     0  -4  83 NE5       30.48F WCI -10
BISMARCK       PTCLDY   -11 -18  71 NW6       30.84S WCI -25
RAPID CITY     CLEAR     -5 -12  72 N17       30.68S WCI -27
PIERRE         CLEAR     -5 -13  68 N13       30.79S WCI -24
SIOUX FALLS    FLURRIES  -5 -11  75 N20G29    30.65R WCI -28
OMAHA          CLEAR     -1 -10  65 NW16      30.70R WCI -21
GRAND ISLAND   CLOUDY     2  -5  72 NW21      30.66S WCI -20
SCOTTSBLUFF    CLEAR      1  -5  75 NW6       30.62R WCI -10
KANSAS CITY    CLEAR      1  -6  72 NW9       30.67R WCI -14
HILL CITY      CLEAR      5  -5  63 NW12      30.70R WCI -11
WICHITA        PTCLDY    10   0  63 N10       30.72R WCI  -4
DODGE CITY     CLEAR      6  -3  66 N15       30.66R WCI -12
OKLAHOMA CITY  CLOUDY    17   3  54 N21G31    30.68R WCI   0
DALLAS         LGTSLEET  36  20  52 N29G36    30.50R WCI  23
AMARILLO       CLOUDY    20  -2  38 N15       30.58R WCI   6
$$




USA.gov is the U.S. government's official web portal to all federal, state and local government web resources and services.